Time,TemperatureF,DewpointF,PressureIn,WindDirection,WindDirectionDegrees,WindSpeedMPH,WindSpeedGustMPH,Humidity,HourlyPrecipIn,Conditions,Clouds,dailyrainin,SolarRadiationWatts/m^2,SoftwareType,DateUTC
2014-01-22 00:13:00,11.0,8.0,29.72,SSW,195,5.0,15.0,86,0.00,,,0.00,218.000000,,2014-01-22 05:13:00,
2014-01-22 00:22:00,11.0,8.0,29.72,SSW,195,5.0,15.0,86,0.00,,,0.00,218.000000,,2014-01-22 05:22:00,
2014-01-22 00:32:00,11.0,8.0,29.72,SSW,195,5.0,15.0,86,0.00,,,0.00,218.000000,,2014-01-22 05:32:00,
2014-01-22 00:42:00,11.0,8.0,29.72,SSW,195,5.0,15.0,86,0.00,,,0.00,218.000000,,2014-01-22 05:42:00,
2014-01-22 01:12:00,10.0,6.0,29.73,NE,40,4.0,12.0,85,0.00,,,0.00,304.000000,,2014-01-22 06:12:00,
2014-01-22 01:22:00,10.0,6.0,29.73,NE,40,4.0,12.0,85,0.00,,,0.00,304.000000,,2014-01-22 06:22:00,
2014-01-22 01:32:00,10.0,6.0,29.73,NE,40,4.0,12.0,85,0.00,,,0.00,304.000000,,2014-01-22 06:32:00,
2014-01-22 01:42:00,10.0,6.0,29.73,NE,40,4.0,12.0,85,0.00,,,0.00,304.000000,,2014-01-22 06:42:00,
2014-01-22 02:11:00,8.0,4.0,29.75,South,191,5.0,17.0,85,0.00,,,0.00,33.000000,,2014-01-22 07:11:00,
2014-01-22 02:22:00,8.0,4.0,29.75,South,191,5.0,17.0,85,0.00,,,0.00,33.000000,,2014-01-22 07:22:00,
2014-01-22 02:32:00,8.0,4.0,29.75,South,191,5.0,17.0,85,0.00,,,0.00,33.000000,,2014-01-22 07:32:00,
2014-01-22 02:42:00,8.0,4.0,29.75,South,191,5.0,17.0,85,0.00,,,0.00,33.000000,,2014-01-22 07:42:00,
2014-01-22 03:11:00,7.0,3.0,29.74,WSW,241,4.0,12.0,85,0.00,,,0.00,125.000000,,2014-01-22 08:11:00,
2014-01-22 03:22:00,7.0,3.0,29.74,WSW,241,4.0,12.0,85,0.00,,,0.00,125.000000,,2014-01-22 08:22:00,
2014-01-22 03:32:00,7.0,3.0,29.74,WSW,241,4.0,12.0,85,0.00,,,0.00,125.000000,,2014-01-22 08:32:00,
2014-01-22 03:42:00,7.0,3.0,29.74,WSW,241,4.0,12.0,85,0.00,,,0.00,125.000000,,2014-01-22 08:42:00,
2014-01-22 04:11:00,7.0,3.0,29.75,South,186,5.0,16.0,84,0.00,,,0.00,188.000000,,2014-01-22 09:11:00,
2014-01-22 04:22:00,7.0,3.0,29.75,South,186,5.0,16.0,84,0.00,,,0.00,188.000000,,2014-01-22 09:22:00,
2014-01-22 04:33:00,7.0,3.0,29.75,South,186,5.0,16.0,84,0.00,,,0.00,188.000000,,2014-01-22 09:33:00,
2014-01-22 04:43:00,7.0,3.0,29.75,South,186,5.0,16.0,84,0.00,,,0.00,188.000000,,2014-01-22 09:43:00,
2014-01-22 05:12:00,6.0,2.0,29.74,SSW,195,5.0,18.0,84,0.00,,,0.00,124.000000,,2014-01-22 10:12:00,
2014-01-22 05:23:00,6.0,2.0,29.74,SSW,195,5.0,18.0,84,0.00,,,0.00,124.000000,,2014-01-22 10:23:00,
2014-01-22 05:33:00,6.0,2.0,29.74,SSW,195,5.0,18.0,84,0.00,,,0.00,124.000000,,2014-01-22 10:33:00,
2014-01-22 05:42:00,6.0,2.0,29.74,SSW,195,5.0,18.0,84,0.00,,,0.00,124.000000,,2014-01-22 10:42:00,
2014-01-22 06:11:00,5.0,1.0,29.75,South,189,5.0,18.0,84,0.00,,,0.00,80.000000,,2014-01-22 11:11:00,
2014-01-22 06:22:00,5.0,1.0,29.75,South,189,5.0,18.0,84,0.00,,,0.00,80.000000,,2014-01-22 11:22:00,
2014-01-22 06:33:00,5.0,1.0,29.75,South,189,5.0,18.0,84,0.00,,,0.00,80.000000,,2014-01-22 11:33:00,
2014-01-22 06:42:00,5.0,1.0,29.75,South,189,5.0,18.0,84,0.00,,,0.00,80.000000,,2014-01-22 11:42:00,
2014-01-22 07:12:00,5.0,1.0,29.77,SW,223,3.0,15.0,83,0.00,,,0.00,71.000000,,2014-01-22 12:12:00,
2014-01-22 07:22:00,5.0,1.0,29.77,SW,223,3.0,15.0,83,0.00,,,0.00,71.000000,,2014-01-22 12:22:00,
2014-01-22 07:32:00,5.0,1.0,29.77,SW,223,3.0,15.0,83,0.00,,,0.00,71.000000,,2014-01-22 12:32:00,
2014-01-22 07:42:00,5.0,1.0,29.77,SW,223,3.0,15.0,83,0.00,,,0.00,71.000000,,2014-01-22 12:42:00,
2014-01-22 08:12:00,4.0,0.0,29.77,SSE,147,4.0,15.0,83,0.00,,,0.00,68.000000,,2014-01-22 13:12:00,
2014-01-22 08:22:00,4.0,0.0,29.77,SSE,147,4.0,15.0,83,0.00,,,0.00,68.000000,,2014-01-22 13:22:00,
2014-01-22 08:32:00,4.0,0.0,29.77,SSE,147,4.0,15.0,83,0.00,,,0.00,68.000000,,2014-01-22 13:32:00,
2014-01-22 08:42:00,4.0,0.0,29.77,SSE,147,4.0,15.0,83,0.00,,,0.00,68.000000,,2014-01-22 13:42:00,
2014-01-22 09:12:00,6.0,2.0,29.79,SSE,162,6.0,15.0,84,0.00,,,0.00,130.000000,,2014-01-22 14:12:00,
2014-01-22 09:22:00,6.0,2.0,29.79,SSE,162,6.0,15.0,84,0.00,,,0.00,130.000000,,2014-01-22 14:22:00,
2014-01-22 09:32:00,6.0,2.0,29.79,SSE,162,6.0,15.0,84,0.00,,,0.00,130.000000,,2014-01-22 14:32:00,
2014-01-22 09:42:00,6.0,2.0,29.79,SSE,162,6.0,15.0,84,0.00,,,0.00,130.000000,,2014-01-22 14:42:00,
2014-01-22 10:12:00,12.0,8.0,29.81,SW,215,5.0,15.0,84,0.00,,,0.00,165.000000,,2014-01-22 15:12:00,
2014-01-22 10:22:00,12.0,8.0,29.81,SW,215,5.0,15.0,84,0.00,,,0.00,165.000000,,2014-01-22 15:22:00,
2014-01-22 10:33:00,12.0,8.0,29.81,SW,215,5.0,15.0,84,0.00,,,0.00,165.000000,,2014-01-22 15:33:00,
2014-01-22 11:23:00,17.0,11.0,29.83,NNW,331,6.0,17.0,77,-99.99,,,0.00,194.000000,,2014-01-22 16:23:00,
2014-01-22 11:33:00,17.0,11.0,29.83,NNW,331,6.0,17.0,77,-99.99,,,0.00,194.000000,,2014-01-22 16:33:00,
2014-01-22 13:12:00,23.0,10.0,29.79,North,357,7.0,17.0,58,-99.99,,,0.00,299.000000,,2014-01-22 18:12:00,
2014-01-22 13:22:00,23.0,10.0,29.79,North,357,7.0,17.0,58,-99.99,,,0.00,299.000000,,2014-01-22 18:22:00,
2014-01-22 13:33:00,23.0,10.0,29.79,North,357,7.0,17.0,58,-99.99,,,0.00,299.000000,,2014-01-22 18:33:00,
2014-01-22 13:42:00,23.0,10.0,29.79,North,357,7.0,17.0,58,-99.99,,,0.00,299.000000,,2014-01-22 18:42:00,
2014-01-22 14:11:00,23.0,6.0,29.80,NW,323,7.0,20.0,47,0.00,,,0.00,346.000000,,2014-01-22 19:11:00,
2014-01-22 14:22:00,23.0,6.0,29.80,NW,323,7.0,20.0,47,0.00,,,0.00,346.000000,,2014-01-22 19:22:00,
2014-01-22 14:32:00,23.0,6.0,29.80,NW,323,7.0,20.0,47,0.00,,,0.00,346.000000,,2014-01-22 19:32:00,
2014-01-22 14:42:00,23.0,6.0,29.80,NW,323,7.0,20.0,47,0.00,,,0.00,346.000000,,2014-01-22 19:42:00,
2014-01-22 15:11:00,22.0,6.0,29.79,NNW,337,8.0,20.0,49,0.00,,,0.00,2.000000,,2014-01-22 20:11:00,
2014-01-22 15:22:00,22.0,6.0,29.79,NNW,337,8.0,20.0,49,0.00,,,0.00,2.000000,,2014-01-22 20:22:00,
2014-01-22 15:32:00,22.0,6.0,29.79,NNW,337,8.0,20.0,49,0.00,,,0.00,2.000000,,2014-01-22 20:32:00,
2014-01-22 15:42:00,22.0,6.0,29.79,NNW,337,8.0,20.0,49,0.00,,,0.00,2.000000,,2014-01-22 20:42:00,
2014-01-22 17:13:00,18.0,5.0,29.81,NW,324,5.0,19.0,57,-99.99,,,0.00,327.000000,,2014-01-22 22:13:00,
2014-01-22 17:23:00,18.0,5.0,29.81,NW,324,5.0,19.0,57,-99.99,,,0.00,327.000000,,2014-01-22 22:23:00,
2014-01-22 17:33:00,18.0,5.0,29.81,NW,324,5.0,19.0,57,-99.99,,,0.00,327.000000,,2014-01-22 22:33:00,
2014-01-22 17:43:00,18.0,5.0,29.81,NW,324,5.0,19.0,57,-99.99,,,0.00,327.000000,,2014-01-22 22:43:00,
2014-01-22 18:12:00,14.0,1.0,29.81,WNW,302,5.0,15.0,56,0.00,,,0.00,318.000000,,2014-01-22 23:12:00,
2014-01-22 18:22:00,14.0,1.0,29.81,WNW,302,5.0,15.0,56,0.00,,,0.00,318.000000,,2014-01-22 23:22:00,
2014-01-22 18:33:00,14.0,1.0,29.81,WNW,302,5.0,15.0,56,0.00,,,0.00,318.000000,,2014-01-22 23:33:00,
2014-01-22 18:42:00,14.0,1.0,29.81,WNW,302,5.0,15.0,56,0.00,,,0.00,318.000000,,2014-01-22 23:42:00,
2014-01-22 19:12:00,15.0,0.0,29.83,NW,304,5.0,17.0,51,0.00,,,0.00,306.000000,,2014-01-23 00:12:00,
2014-01-22 19:22:00,15.0,0.0,29.83,NW,304,5.0,17.0,51,0.00,,,0.00,306.000000,,2014-01-23 00:22:00,
2014-01-22 19:32:00,15.0,0.0,29.83,NW,304,5.0,17.0,51,0.00,,,0.00,306.000000,,2014-01-23 00:32:00,
2014-01-22 19:42:00,15.0,0.0,29.83,NW,304,5.0,17.0,51,0.00,,,0.00,306.000000,,2014-01-23 00:42:00,
2014-01-22 21:42:00,13.0,-2.0,29.86,WNW,284,4.0,18.0,51,0.00,,,0.00,295.000000,,2014-01-23 02:42:00,
2014-01-22 22:12:00,13.0,0.0,29.87,SSW,213,4.0,12.0,56,0.00,,,0.00,279.000000,,2014-01-23 03:12:00,
2014-01-22 22:22:00,13.0,0.0,29.87,SSW,213,4.0,12.0,56,0.00,,,0.00,279.000000,,2014-01-23 03:22:00,
2014-01-22 22:33:00,13.0,0.0,29.87,SSW,213,4.0,12.0,56,0.00,,,0.00,279.000000,,2014-01-23 03:33:00,
2014-01-22 22:43:00,13.0,0.0,29.87,SSW,213,4.0,12.0,56,0.00,,,0.00,279.000000,,2014-01-23 03:43:00,
2014-01-22 23:14:00,13.0,-3.0,29.88,SW,219,6.0,22.0,48,0.00,,,0.00,263.000000,,2014-01-23 04:14:00,
2014-01-22 23:23:00,13.0,-3.0,29.88,SW,219,6.0,22.0,48,0.00,,,0.00,263.000000,,2014-01-23 04:23:00,
2014-01-22 23:33:00,13.0,-3.0,29.88,SW,219,6.0,22.0,48,0.00,,,0.00,263.000000,,2014-01-23 04:33:00,
2014-01-22 23:43:00,13.0,-3.0,29.88,SW,219,6.0,22.0,48,0.00,,,0.00,263.000000,,2014-01-23 04:43:00,